Location: Newark
(10.3333°N, 37.7167°E)
Time: 15:03:19
(UTC+00:00)

STARLINK-1071 - Pass Details

Date: 04 February 2020
Orbit: 345 x 354 km, 53.0° (Epoch: 24 February)

Event Time Altitude Azimuth Distance (km) Brightness Sun altitude
Rises 17:19:00 0° 311° (NW) 2,161 7.1 -25.7°
Reaches altitude 10° 17:21:09 10° 299° (WNW) 1,317 6.1 -26.3°
Enters shadow 17:21:38 13° 294° (WNW) 1,142 5.8 -26.4°
